Location: Tr�vern
(48.0333°N, 4.6000°W)
Time: 17:53:31
(UTC+00:00)

ARIANE 5 R/B - Pass Details

Date: 14 July 2020
Orbit: 749 x 794 km, 98.6° (Epoch: 13 August)

Event Time Altitude Azimuth Distance (km) Brightness Sun altitude
Rises 02:50:47 0° 18° (NNE) 3,236 7.3 -13.0°
Reaches altitude 10° 02:53:08 10° 23° (NNE) 2,312 6.4 -12.8°
Maximum altitude 02:58:07 52° 100° (E) 952 3.2 -12.3°
Drops below altitude 10° 03:03:07 10° 177° (S) 2,324 4.5 -11.8°
Enters shadow 03:03:30 - 178° (S) 2,472 4.7 -11.8°
